STARLINK-32844, 62820

Orbit data source: Space-Track

STARLINK-32844, 62820 is a payload satellite owned by SpaceX/Seattle (US) in LEO that was launched on Fri, 24 Jan 2025 UTC via an FALCON 9 launch vehicle from the Air Force Western Test Range (AFWTR). Payload-class satellites include a variety of spacecraft equipped with specific instruments for various scientific and technological missions. These include communications satellites like Starlink; space stations such as the ISS; scientific satellites like the Hubble; Earth observation satellites from companies like Planet Labs, Umbra, and HawkEye 360; GPS; miniature CubeSats for education and research; and military/defense satellites.

Loading next visibility...
Identifier
62820, 2025-018Q
Orbit
LEO
Last TLE update
16 hours ago
Origin
Manufacturer
SpaceX/Seattle
Mission
Operational Commercial Communications
Bus & Motor
STARLINK V2M, Unknown motor
Mass
730 kg wet, ~700 kg dry
Launch date (UTC)
2025-01-24 (6 months ago)
Launch vehicle
FALCON 9
Launch site
Air Force Western Test Range (AFWTR)
Object type
Payload
Rocket body
Debris
Shape & HBR
Box + 2 Pan, 29 m
Radar Cross Section
33.884 m², Large (>1 m²)

Expand to show TLE details & history

TLE from 16 hours ago
0 STARLINK-32844
1 62820U 25018Q   25191.73445681  .00011326  00000-0  39404-3 0  9996
2 62820  53.1585 353.4779 0001176  82.7331 277.3804 15.30190640 26125
Epoch: 2025-07-10T17:37Z
TLE epoch observation values (Epoch: 2025-07-10T17:37:37.068Z)
Latitude
0.00003°
Longitude
160.17699°
Altitude
476.039 km
Speed
7.629 km/s
True Right ascension
23h 33m 54s
True Declination
0° 00' 00"
Sunlit
Object was in full shadow at epoch
Visualization orbit readout
Latitude
-13.69978°
Longitude
146.69195°
Altitude
479.034 km
Speed
7.626 km/s
Apparent Right ascension
01h 04m 18s
Apparent Declination
-66° 39' 32"
Sunlit
Object is in full shadow
Visualization observer readout
Local Sidereal Time
21:31:21
Azimuth
159.662° S
Elevation
-24.035°
Doppler factor
1
Orbital elements
Apogee altitude
476.306 km
Perigee altitude
474.694 km
Semi-major axis
6,853.637 km
Eccentricity
0.00012
Inclination
53.1585°
RAAN
353.4779°
Arg. of periapsis
82.7331°
True anomaly
Unknown
Mean anomaly
277.3804°
Eccentric anomaly
Unknown
Mean motion
3.82527 °/min
Orbital period
94.11 mins
BSTAR
0.00039404
Loading maneuver chart data...
Loading SW <> Apogee altitude chart data...
Loading historical data...
Loading historical data...
Loading historical data...
Loading historical data...
Loading historical data...
Loading historical data...
Loading historical data...

STARLINK-32844 Visibility forecast

Observer location: undefined°, undefined°

Span
Click to sort rows by Start time (UTC) header in descending order
Start Az.
Max El. time (UTC)
Max El. Az.
Max El.
End time (UTC)
End Az.
5 mins2025-07-11 12:35:40.465Z180.198° SSW2025-07-11 12:37:40.465Z141.98° SSE22.216°2025-07-11 12:40:40.465Z78.803° E
5 mins2025-07-11 14:13:40.465Z266.088° W2025-07-11 14:15:40.465Z318.577° NNW32.236°2025-07-11 14:18:40.465Z33.48° NE
5 mins2025-07-11 19:10:40.465Z340.483° N2025-07-11 19:12:40.465Z25.859° NE24.237°2025-07-11 19:15:40.465Z86.072° E
5 mins2025-07-11 20:48:40.465Z287.819° WNW2025-07-11 20:50:40.465Z231.049° WSW34.256°2025-07-11 20:53:40.465Z156.844° SSE
|